STARLINK-31181, 58746

Orbit data source: Space-Track

STARLINK-31181, 58746 is a payload satellite owned by SpaceX/Seattle (US) in LEO that was launched on Sun, 07 Jan 2024 UTC via an FALCON 9 launch vehicle from the Air Force Eastern Test Range (AFETR). Payload-class satellites include a variety of spacecraft equipped with specific instruments for various scientific and technological missions. These include communications satellites like Starlink; space stations such as the ISS; scientific satellites like the Hubble; Earth observation satellites from companies like Planet Labs, Umbra, and HawkEye 360; GPS; miniature CubeSats for education and research; and military/defense satellites.

Loading next visibility...
Identifier
58746, 2024-005U
Orbit
LEO
Country
Flag of USUS
Related business
Manufacturer
SpaceX/Seattle
Mission
Operational Commercial Communications
Bus & Motor
STARLINK V2M, Unknown motor
Mass
730 kg wet, ~700 kg dry
Launch date (UTC)
2024-01-07 (2 years ago)
Launch vehicle
FALCON 9
Launch site
Air Force Eastern Test Range (AFETR)
Object type
Payload
Rocket body
Debris
Shape & HBR
Box + 2 Pan, 17.7 m
Radar Cross Section
33.884 m², Large (>1 m²)

Expand to show TLE details & history
Last TLE update: 2 days ago

TLE from 2 days ago
0 STARLINK-31181
1 58746U 24005U   26171.16057556  .00000624  00000-0  32213-4 0  9990
2 58746  43.0031 208.8218 0001645 277.2799  82.7866 15.27577392137951
Epoch: 2026-06-20T03:51Z
TLE epoch observation values (Epoch: 2026-06-20T03:51:13.728Z)
Latitude
0.00001°
Longitude
-117.36457°
Altitude
482.691 km
Speed
7.626 km/s
True Right ascension
13h 55m 17s
True Declination
0° 00' 00"
Sunlit
Object was in full shadow at epoch
Visualization orbit readout
Latitude
Unknown
Longitude
Unknown
Altitude
Unknown
Speed
Unknown
Apparent Right ascension
Unknown
Apparent Declination
Unknown
Sunlit
N/A
Visualization observer readout
Local Sidereal Time
21:25:13
Azimuth
Unknown
Elevation
Unknown
Doppler factor
Unknown
Orbital elements
Apogee altitude
486.131 km
Perigee altitude
483.873 km
Semi-major axis
6,863.139 km
Eccentricity
0.00016
Inclination
43.0031°
RAAN
208.8218°
Arg. of periapsis
277.2799°
True anomaly
82.8053°
Mean anomaly
82.7866°
Eccentric anomaly
82.79595°
Mean motion
3.81732 °/min
Orbital period
94.31 mins
BSTAR
0.000032213
Loading maneuver chart data...
Computing Atmospheric mass density...
Loading historical data...
Loading historical data...
Loading historical data...
Loading historical data...
Loading historical data...
Loading historical data...
Loading historical data...

Documentation

Showing up to 5 results
|